Location: STAR School
(35.3054°N, 111.2976°W)
Time: 12:18:14
(UTC-07:00)

deb Explorer IX - Pass Details

Date: 27 May 2019
Orbit: 537 x 1115 km, 38.8° (Epoch: 16 June)

Event Time Altitude Azimuth Distance (km) Brightness Sun altitude
Exits shadow 02:31:52 51° 9° (N) 671 ? -25.6°
Drops below altitude 10° 02:35:38 10° 73° (ENE) 1,808 ? -25.2°
Sets 02:37:58 0° 78° (ENE) 2,739 ? -24.9°
